Zurück zum Katalog

ONEWEB-0137

AktivKommunikationPO
NORAD 47283·PAYLOAD·🇬🇧 United Kingdom

Gestartet Dec 18, 2020 von Vostochny Cosmodrome

Loading…

Nächste Überflüge (nächste 24 Stunden)

TLE

AktuellSource: CelesTrak SupGP

Epoche: Sep 14, 2026, 16:09 UTC

1 47283C 20100AB  26257.67341852  .00002432  00000+0  67677-2 0  2577
2 47283  87.8990 332.9013 0001921 104.2285 358.6797 13.12444818    15

Verfolge ONEWEB-0137 in Echtzeit mit AllMySat

Download on the App Store